Location: Asheville, NC
(35.6000°N, 82.5500°W)
Time: 20:19:35

Vanguard 1 Rocket - Pass Details

Date: 16 March 2018
Orbit: 655 x 4222 km, 34.3° (Epoch: 19 March)

Event Time Altitude Azimuth Distance (km) Brightness Sun altitude
Rises 02:07:53 0° 282° (WNW) 6,366 11.7 -55.5°
Reaches altitude 10° 02:12:10 10° 273° (W) 5,798 11.4 -55.3°
Enters shadow 02:12:34 11° 272° (W) 5,754 11.3 -55.3°
Exits shadow 02:54:00 - 158° (SSE) 7,948 11.9 -51.9°
Sets 02:56:10 0° 156° (SSE) 8,225 12.1 -51.7°
